Location: Canyam�s
(41.5996°N, 2.4450°E)
Time: 23:23:10
(UTC+00:00)

BREEZE-M R/B - Pass Details

Date: 06 June 2020
Orbit: 311 x 4533 km, 49.7° (Epoch: 05 July)

Event Time Altitude Azimuth Distance (km) Brightness Sun altitude
Rises 21:54:30 0° 227° (SW) 6,762 8.2 -20.4°
Reaches altitude 10° 21:59:58 10° 226° (SW) 5,033 7.5 -20.8°
Maximum altitude 22:12:03 71° 146° (SE) 1,291 4.3 -21.8°
Drops below altitude 10° 22:17:22 10° 63° (ENE) 2,326 6.0 -22.2°
Sets 22:19:05 0° 61° (ENE) 2,981 6.6 -22.3°
